Lapse_Rate
6.6 6.6 6.7 6.8 6.8 7.6 9.5 8.1 7.7 7.9 7.8 7.2 7.3 7.7 7.1 7.2 7.4 7.3 6.3 7.1 6.9 7.1 7.2 7.2 7.1 7.1 6.8 6.7 6.8 6.8 6.9 6.8 6.7 6.8 7.1 7.1 6.9 6.6 6.3 6.3 6.5 6.6 6.5 6.6 6.4 6.4 6.4 6.3 6.2
6.6 6.6 6.7 6.6 7.4 9.6 9.6 7.6 7.7 7.7 7.4 7.4 7.3 7.7 7.7 6.8 7.0 6.6 6.6 7.1 7.1 7.3 7.4 7.5 7.4 7.3 7.2 7.0 6.9 6.8 6.7 6.6 6.6 6.6 6.6 6.8 6.9 7.0 6.8 6.4 6.4 6.4 6.6 6.5 6.6 6.3 6.3 6.3 6.3
6.6 6.6 6.5 7.3 8.1 9.5 9.3 7.6 7.5 7.4 7.4 7.5 7.6 7.6 7.4 6.8 6.9 7.6 7.5 7.2 7.4 7.5 7.7 7.6 7.5 7.5 7.3 7.2 7.2 7.0 6.8 6.7 6.6 6.6 6.6 6.6 6.8 6.8 7.0 7.0 6.7 6.5 6.5 6.7 6.7 6.6 6.4 6.2 6.3
6.5 6.4 6.6 7.3 9.0 7.8 7.8 7.2 7.4 7.5 7.5 7.6 8.0 7.2 7.7 7.7 7.9 7.7 7.2 7.3 7.3 7.7 7.8 7.8 7.8 7.5 7.3 7.1 7.0 7.0 6.9 6.8 6.7 6.5 6.5 6.5 6.7 6.9 6.8 6.9 7.1 7.0 6.8 6.6 6.6 6.8 6.8 6.5 6.4
6.4 6.4 7.3 7.9 8.6 7.5 7.2 7.0 7.3 7.8 7.6 7.6 8.0 7.5 7.4 7.7 7.5 7.8 8.1 7.8 7.8 7.8 7.8 7.6 7.4 7.4 7.3 7.1 7.0 6.9 6.9 7.0 7.0 6.8 6.5 6.5 6.7 6.8 6.9 7.0 7.1 7.2 7.1 6.9 6.9 6.7 6.7 6.8 6.6
6.2 6.8 7.7 9.2 9.2 7.2 7.0 6.9 7.4 7.6 7.8 7.8 8.3 6.7 6.9 6.7 7.9 7.7 7.8 7.8 7.7 7.5 7.5 7.4 7.3 7.3 7.2 7.1 7.0 6.9 7.0 7.0 7.1 7.0 6.7 6.3 6.5 6.7 6.8 6.9 6.9 7.1 7.2 7.2 6.9 6.9 6.8 6.5 6.4
6.3 7.2 7.9 8.7 9.3 7.3 7.1 6.8 7.3 7.8 8.1 7.5 7.7 7.1 6.6 7.7 7.7 7.9 7.9 7.7 7.5 7.4 7.4 7.4 7.3 7.4 7.3 7.2 7.1 7.1 6.9 6.8 6.8 6.9 6.9 6.5 6.3 6.5 6.6 6.9 6.9 7.0 7.2 7.2 7.0 6.8 6.8 6.8 6.5
6.3 6.9 7.7 8.0 8.6 7.9 6.8 6.8 6.9 7.5 7.1 7.5 7.5 7.5 6.4 7.6 7.6 7.5 7.4 7.4 7.3 7.3 7.2 7.2 7.2 7.2 7.2 7.1 7.0 6.9 6.8 6.8 6.7 6.6 6.7 6.6 6.5 6.5 6.4 6.8 7.0 7.0 6.9 6.9 6.9 6.8 6.7 6.7 6.8
6.5 7.0 8.2 8.6 7.8 7.7 6.8 6.9 6.8 7.1 7.3 6.9 7.6 7.4 7.2 7.1 7.2 7.2 7.3 7.2 7.2 7.1 7.1 7.1 7.1 7.1 7.0 6.9 6.8 6.8 6.8 6.6 6.5 6.5 6.5 6.4 6.4 6.5 6.6 6.4 6.5 6.8 6.9 6.9 6.9 6.9 6.9 6.9 6.9
6.5 7.5 8.9 7.2 7.3 7.1 6.6 6.9 6.8 7.2 7.1 6.8 7.2 7.3 7.2 7.1 7.1 7.2 7.3 7.3 7.2 7.2 7.1 7.1 7.0 6.9 6.8 6.7 6.6 6.5 6.4 6.4 6.2 6.2 6.3 6.3 6.3 6.3 6.5 6.6 6.5 6.5 6.6 6.9 6.9 6.8 6.9 7.1 7.0
6.6 7.1 6.5 6.6 6.5 6.8 6.8 6.8 6.6 7.2 7.2 6.6 6.3 7.1 7.2 7.3 7.3 7.1 6.9 6.9 7.0 7.0 6.9 6.8 6.8 6.8 6.7 6.7 6.5 6.4 6.4 6.1 6.1 6.0 6.0 6.0 6.0 6.0 6.1 6.2 6.3 6.4 6.5 6.4 6.6 6.7 6.8 6.7 6.8
6.5 6.3 6.3 6.4 6.3 6.6 6.5 6.5 6.7 6.6 6.9 6.7 6.8 6.8 6.9 6.9 6.9 6.9 6.8 6.8 6.6 6.5 6.5 6.5 6.5 6.4 6.3 6.2 6.2 6.2 6.1 6.0 6.0 5.9 5.9 5.9 5.9 6.0 6.0 6.0 6.1 6.3 6.3 6.3 6.4 6.3 6.4 6.5 6.3
6.5 6.4 6.5 6.4 6.7 6.5 6.5 6.6 6.6 6.6 6.8 6.9 6.8 6.7 6.8 6.8 6.8 6.8 6.7 6.7 6.7 6.6 6.5 6.5 6.4 6.3 6.2 6.2 6.1 6.0 5.9 5.9 5.8 5.8 5.9 5.9 5.9 6.0 6.1 6.3 6.2 6.1 6.2 6.0 6.2 6.1 6.2 6.2 6.2
6.7 6.7 6.6 6.5 6.5 6.4 6.9 6.6 6.7 6.8 6.9 6.8 6.8 6.8 6.8 6.8 6.7 6.7 6.6 6.6 6.5 6.4 6.3 6.3 6.2 6.1 6.1 6.1 6.0 6.1 6.0 6.0 5.9 5.9 6.0 6.0 6.0 6.0 5.8 5.9 6.1 6.2 6.3 6.4 6.5 6.5 5.9 6.2 6.0
7.0 6.9 6.9 6.7 6.7 6.6 6.8 6.6 6.3 6.9 6.7 6.7 6.7 6.7 6.7 6.6 6.5 6.5 6.5 6.4 6.3 6.1 6.0 6.0 6.0 6.0 6.0 6.1 6.0 6.0 6.0 6.1 6.1 6.1 6.0 6.0 6.2 6.2 6.2 6.1 6.0 6.1 6.0 6.4 6.3 6.5 6.4 6.3 6.1
6.7 6.9 7.3 7.1 6.8 6.5 7.1 7.8 6.1 6.8 6.7 6.6 6.6 6.6 6.5 6.3 6.2 6.2 6.0 5.9 5.7 5.6 5.6 5.6 5.6 5.7 5.7 5.8 6.0 6.2 6.3 6.4 6.3 6.4 6.4 6.3 6.2 6.0 6.1 6.3 6.2 6.1 6.2 6.1 6.2 6.2 6.1 6.4 6.3
7.2 8.0 8.0 7.3 6.8 6.9 7.1 7.4 5.8 6.6 6.2 6.0 6.2 6.2 6.1 6.1 6.0 5.8 5.7 5.6 5.4 5.3 5.1 5.0 5.1 5.1 5.2 5.4 5.6 5.8 6.0 6.2 6.4 6.5 6.5 6.5 6.6 6.5 6.3 6.2 6.2 6.2 6.3 6.2 6.1 6.1 6.1 6.2 6.2
8.0 7.8 8.0 7.8 6.8 6.5 7.0 7.4 6.0 6.4 6.3 6.0 5.8 6.0 5.8 5.7 5.7 5.5 5.5 5.4 5.2 5.2 5.1 4.9 4.9 4.9 5.1 5.3 5.5 5.6 5.7 5.8 5.8 5.9 6.2 6.4 6.5 6.7 6.6 6.5 6.4 6.2 6.2 6.2 6.2 6.1 6.1 6.0 6.2
6.9 7.0 7.4 7.9 7.2 6.1 6.5 6.8 7.3 5.7 6.0 5.6 5.9 5.9 5.8 5.7 5.7 5.6 5.4 5.2 5.0 4.9 4.9 4.9 4.8 5.0 5.3 5.5 5.6 5.7 5.7 5.8 5.8 5.9 6.0 6.1 6.1 6.2 6.3 6.3 6.3 6.3 6.2 6.0 6.1 6.1 6.1 6.1 6.0
6.6 6.9 7.1 7.2 7.0 6.1 6.8 7.1 7.3 6.7 5.4 5.7 5.2 5.8 5.9 5.9 5.6 5.5 5.4 5.1 5.0 4.8 4.7 4.7 5.0 5.2 5.3 5.2 5.2 5.2 5.3 5.5 5.6 5.7 5.8 5.9 5.9 6.1 6.2 6.1 6.2 6.0 5.9 5.9 5.8 5.7 5.8 6.0 6.2
6.6 6.8 7.1 7.1 6.9 6.7 7.0 7.1 7.8 7.4 5.6 6.2 6.3 5.8 6.0 5.7 5.7 5.5 5.2 5.0 4.9 4.9 5.1 5.3 5.3 5.3 5.3 5.4 5.5 5.5 5.5 5.5 5.5 5.6 5.6 5.6 5.8 5.9 5.9 5.8 5.9 5.8 5.7 5.7 5.7 5.5 5.4 5.5 6.0
6.9 7.2 6.5 6.5 6.7 7.7 7.0 7.8 8.4 7.8 6.0 6.1 6.2 6.3 6.0 6.1 5.8 5.5 5.2 5.2 5.2 5.5 5.7 5.7 5.6 5.6 5.6 5.6 5.6 5.6 5.7 5.8 6.0 6.0 6.1 6.1 6.0 6.1 6.3 6.3 6.2 6.2 6.1 6.0 5.9 5.8 5.6 5.3 5.4
6.9 6.2 6.5 6.7 6.9 7.2 7.7 7.8 8.8 8.2 7.3 6.3 5.6 6.3 6.1 6.0 5.7 5.7 5.9 5.9 5.9 5.9 5.7 5.6 5.7 5.8 5.7 5.8 5.8 5.9 5.8 6.0 6.1 6.3 6.5 6.6 6.7 6.5 6.2 6.3 6.5 6.5 6.5 6.5 6.7 6.6 6.3 6.1 5.8
6.3 6.4 6.4 6.8 7.2 7.5 7.8 8.1 8.4 9.4 7.3 7.0 6.8 6.1 6.1 5.8 5.8 5.9 6.0 6.1 5.9 6.0 6.0 6.0 5.9 5.8 5.7 5.6 5.6 5.5 5.7 6.0 6.1 6.1 6.0 6.0 6.1 6.2 6.2 6.1 6.0 6.0 6.1 6.0 6.1 6.4 6.5 6.5 6.6
6.2 6.9 7.7 7.8 7.8 7.8 8.1 7.7 8.3 8.7 7.2 7.0 7.2 6.5 6.3 6.2 6.0 5.9 6.0 6.0 6.1 6.0 6.1 6.0 6.0 6.0 5.8 5.5 5.3 5.1 5.3 5.3 5.1 5.1 5.3 5.3 5.3 5.2 5.2 5.2 5.2 5.2 5.3 5.4 5.5 5.8 6.0 6.1 6.6
6.8 7.3 7.8 8.2 8.8 9.4 8.1 8.0 9.1 7.6 7.7 7.5 7.3 7.0 6.6 6.2 6.1 6.1 6.2 6.2 6.2 6.1 6.1 6.2 6.1 5.9 5.4 5.3 5.1 4.9 4.6 4.4 4.4 4.7 4.9 5.0 5.3 5.5 5.3 5.3 5.0 4.8 4.9 5.1 5.4 5.7 6.1 6.0 6.2
6.9 6.8 7.3 7.6 7.5 7.9 7.9 8.2 9.1 7.2 6.9 7.0 7.2 7.0 6.6 6.6 6.4 6.2 6.3 6.4 6.2 6.2 6.3 6.3 6.4 6.1 5.8 6.1 5.9 5.5 5.1 4.9 4.9 4.7 5.0 5.2 5.2 5.2 5.1 5.1 5.1 5.0 5.0 5.0 5.0 5.1 5.4 5.7 5.9
6.9 7.1 7.0 7.4 7.5 7.9 8.5 9.4 9.4 7.6 7.3 7.1 6.9 6.2 6.0 6.3 6.3 6.4 6.4 6.3 6.2 6.3 6.4 6.5 6.5 6.1 5.9 6.2 6.2 6.1 5.9 5.6 4.9 4.4 4.3 4.6 5.2 5.4 5.4 5.3 5.2 5.1 5.2 5.4 5.2 5.1 4.9 5.1 5.3
6.8 7.0 7.1 7.8 7.9 8.4 8.4 8.1 7.8 7.5 7.4 7.9 7.5 7.2 6.5 5.7 6.4 6.3 6.2 6.2 6.2 6.3 6.5 6.5 6.3 5.8 6.0 6.2 6.6 6.7 6.2 5.8 5.7 4.8 4.3 4.5 4.8 5.0 5.3 5.5 5.4 5.5 5.6 5.8 5.7 5.5 5.5 5.4 5.5
7.5 7.4 7.7 7.5 8.1 8.5 9.0 7.2 7.8 7.6 7.3 7.8 7.2 7.0 6.6 6.3 6.5 6.1 6.0 6.1 6.2 6.3 6.5 6.3 6.1 6.2 6.2 6.2 6.8 7.0 6.9 6.4 6.1 5.8 5.4 4.4 4.4 4.7 4.9 5.2 5.6 5.8 5.9 5.8 5.7 5.8 5.8 5.4 5.2
Wind_Speed
20 14 6 6 7 7 8 6 5 3 7 6 3 11 19 20 17 6 12 11 9 13 11 9 6 6 5 4 5 5 5 5 7 9 9 9 8 8 9 12 12 10 10 9 8 6 4 5 5
13 8 7 7 8 10 6 7 2 2 7 4 4 5 14 15 16 13 14 12 11 10 13 13 8 7 7 6 5 4 2 3 3 6 8 8 8 9 10 10 11 10 10 9 8 7 4 4 5
12 7 9 5 10 9 7 6 4 5 6 5 5 11 7 11 14 13 11 11 12 12 21 15 13 11 9 9 9 8 7 5 2 3 6 9 10 10 10 12 12 10 10 9 8 8 5 5 5
6 5 6 9 13 10 11 6 2 7 6 1 7 13 9 7 8 14 13 15 18 23 19 21 18 16 14 12 11 10 9 8 6 4 5 11 14 14 14 13 13 12 11 9 9 9 6 6 5
8 7 11 11 3 4 5 5 3 2 5 5 4 13 12 13 17 16 20 18 17 17 21 20 25 25 18 17 16 13 12 11 10 8 7 9 11 11 12 13 13 11 11 11 10 9 8 8 7
8 5 10 11 8 6 5 3 2 3 6 5 9 16 9 15 15 14 15 16 16 15 18 19 21 22 24 23 21 15 13 11 11 10 9 10 11 11 11 13 13 12 13 13 13 12 10 8 8
12 9 14 9 8 7 6 1 3 0 9 8 5 14 9 11 11 13 14 15 15 17 17 20 21 21 18 19 21 20 17 12 11 11 11 11 12 13 12 13 15 16 15 15 15 14 13 11 10
8 7 14 10 7 7 5 2 2 5 9 2 12 6 11 9 12 12 13 14 15 15 16 17 18 18 17 15 18 16 16 21 15 11 12 13 13 14 14 15 17 16 16 17 16 15 13 12 12
6 9 12 6 6 11 7 3 3 0 6 14 10 14 11 8 7 7 10 12 12 12 14 17 18 19 18 14 16 13 11 15 16 17 19 15 13 16 17 18 20 21 19 17 17 16 14 13 12
8 10 7 10 7 3 5 6 4 7 5 14 11 11 10 9 8 9 10 10 12 13 14 13 15 16 17 14 15 14 13 14 11 15 17 13 17 14 18 16 20 21 17 17 16 17 14 13 16
1 9 7 6 4 5 2 5 1 7 5 9 11 8 9 9 9 9 10 11 12 12 11 13 13 16 17 13 13 12 13 13 13 14 15 15 15 13 14 11 11 13 16 15 15 16 15 17 17
9 0 2 5 2 3 3 6 3 10 8 7 9 8 7 8 9 9 10 11 11 11 13 14 15 14 15 14 12 13 11 13 12 14 15 15 9 9 10 7 10 10 12 11 14 10 13 14 16
8 3 3 4 6 7 4 7 1 5 6 7 8 7 7 7 7 8 8 10 9 11 12 12 12 12 15 12 13 13 11 11 15 13 13 15 11 9 11 8 10 10 8 7 8 9 9 10 10
2 5 6 6 8 6 8 7 9 6 7 7 7 8 7 7 7 7 8 9 9 10 11 11 12 13 15 10 13 10 12 13 13 12 13 14 13 11 9 10 10 9 8 9 6 5 6 7 8
6 10 11 11 9 6 9 9 10 9 9 9 8 7 6 6 6 7 7 8 9 8 10 11 11 13 12 11 13 12 12 14 13 12 14 13 14 15 13 9 9 9 14 9 11 7 5 3 5
9 11 12 11 7 6 7 5 12 11 11 10 9 8 7 6 7 8 8 9 10 11 11 11 10 12 12 11 11 11 12 12 12 13 15 14 15 17 14 10 10 14 13 11 8 9 8 8 8
10 12 11 10 6 1 10 3 15 11 9 9 8 8 6 6 5 6 7 8 9 11 12 13 14 14 16 14 13 13 13 11 12 14 13 14 16 16 15 10 11 15 9 9 10 10 10 9 10
9 8 8 11 10 7 11 13 14 12 11 10 9 7 6 4 3 5 7 8 8 9 9 11 11 13 14 10 10 10 10 10 14 14 13 16 15 17 16 13 12 15 10 10 10 11 11 11 10
10 11 13 12 4 4 13 14 12 15 11 11 9 9 7 4 5 3 4 4 5 7 8 10 11 12 11 9 10 10 11 11 11 13 17 17 17 18 16 11 12 10 11 12 12 11 13 11 11
11 13 14 12 7 6 15 15 12 16 11 10 10 9 7 7 6 4 3 3 5 7 9 10 11 12 11 10 10 10 11 12 11 14 15 19 18 19 18 14 13 14 12 13 13 13 11 11 11
13 13 12 11 8 12 20 17 20 14 11 8 9 6 5 4 3 3 1 3 4 7 8 9 10 11 10 12 10 10 11 10 10 11 12 14 21 22 21 19 13 14 12 12 13 13 15 12 11
14 12 9 11 11 10 4 11 12 13 11 11 11 9 9 7 5 2 1 3 5 6 6 8 9 10 10 12 12 14 11 12 11 12 12 14 22 21 19 18 14 12 10 13 12 13 13 13 13
9 2 7 10 12 14 16 10 6 9 11 15 12 11 9 7 3 2 0 2 3 5 7 7 9 10 11 13 13 11 13 11 11 11 15 14 13 20 18 15 13 12 9 10 12 13 14 10 11
4 8 8 9 10 12 17 16 12 6 6 8 7 10 9 8 6 3 1 1 4 6 6 7 9 10 12 12 13 14 14 14 12 13 11 10 10 10 14 17 14 13 11 12 10 11 13 11 11
12 9 7 10 8 11 3 5 8 1 7 3 3 7 8 7 6 3 2 2 3 6 7 7 9 10 12 13 13 13 14 14 14 13 11 13 9 9 12 14 13 11 12 13 12 12 12 11 10
15 13 8 10 10 10 9 6 3 7 8 10 6 4 9 8 7 5 2 0 3 4 6 8 9 10 11 11 12 12 13 9 10 12 11 9 9 10 15 13 13 14 14 13 12 10 10 12 10
9 11 14 15 15 12 12 17 5 9 8 8 7 7 10 10 8 6 4 1 2 4 6 8 10 10 10 10 10 11 11 12 12 13 12 10 12 11 14 14 13 11 11 10 11 8 13 12 11
10 6 6 7 5 11 11 14 5 7 4 6 9 9 9 8 7 6 4 2 2 4 4 7 9 9 9 10 9 9 11 11 11 11 13 14 13 14 14 14 14 13 11 12 10 9 8 10 7
8 10 7 5 10 11 13 9 2 2 1 7 6 7 8 9 8 5 1 3 3 5 6 7 7 8 9 10 9 10 10 11 11 11 12 14 15 15 15 15 15 15 15 14 11 12 14 14 12
14 16 15 7 9 11 12 12 2 5 5 6 9 11 6 7 9 8 5 1 1 2 3 4 7 7 8 9 9 9 9 10 11 11 13 12 14 13 15 15 15 15 14 15 15 14 14 14 14
Wind_Direction
283 251 275 264 245 231 252 110 7 165 151 68 67 12 61 43 28 58 77 52 64 91 111 105 82 76 73 76 93 108 125 160 180 177 182 193 199 211 197 184 184 186 195 198 203 205 192 172 172
298 292 244 273 255 240 155 90 185 85 70 101 118 146 88 60 76 64 63 66 72 100 110 87 66 50 39 30 21 30 59 111 169 184 192 195 202 204 201 200 196 197 199 205 212 225 221 202 192
262 264 271 245 252 289 78 102 88 121 142 162 117 44 47 97 51 74 68 78 80 81 72 65 54 48 38 25 15 4 360 359 352 209 198 198 203 208 207 203 202 210 218 210 218 228 230 219 212
266 209 232 254 262 64 47 78 131 145 135 164 96 98 83 48 72 70 64 54 56 39 71 59 45 41 36 30 18 6 356 345 328 296 241 218 213 206 211 207 212 211 218 213 227 228 206 220 218
238 259 263 243 141 68 75 62 348 147 84 151 213 98 91 90 65 52 50 46 47 47 43 40 36 26 28 35 25 16 360 349 333 319 293 278 237 226 220 217 214 222 221 218 222 235 225 214 212
255 264 255 238 152 121 93 82 352 114 133 135 130 101 90 67 71 68 70 63 51 44 37 33 31 24 28 30 20 14 10 354 333 316 297 285 276 256 239 226 224 223 232 236 229 227 224 225 221
256 271 263 309 118 167 116 346 13 1 156 56 67 140 105 89 82 78 74 71 61 50 40 31 24 16 18 29 19 19 11 0 342 315 290 276 276 268 254 243 231 231 237 239 243 237 227 210 216
276 279 269 240 155 179 126 198 182 336 73 153 351 154 131 101 97 83 69 64 55 44 36 28 23 15 9 11 12 13 19 17 356 333 300 280 264 261 255 249 243 236 231 236 243 244 233 219 214
267 261 259 204 240 116 111 204 66 21 141 49 54 71 86 103 116 98 83 60 51 46 36 27 19 14 4 10 2 4 8 23 7 3 4 321 276 269 238 235 242 228 229 231 240 240 233 220 222
249 257 321 37 23 97 157 252 93 226 153 127 99 87 89 85 74 62 55 52 46 37 33 26 21 14 7 8 359 360 358 359 9 3 356 347 338 309 292 272 236 231 228 238 237 239 230 221 235
241 271 64 101 34 0 332 239 127 265 128 37 85 89 68 67 67 53 52 49 45 38 33 22 18 14 10 2 358 358 351 355 349 1 358 349 340 343 343 322 300 281 244 242 231 233 230 227 235
262 83 291 110 177 273 255 356 244 37 80 67 69 70 74 63 50 47 46 39 32 34 25 18 17 11 10 357 1 350 350 345 351 346 350 347 342 341 332 322 332 322 296 272 257 246 240 235 240
255 146 230 206 226 251 256 241 212 114 98 104 104 90 76 71 69 54 46 41 35 29 27 16 13 9 2 358 356 350 344 347 334 337 341 343 338 334 328 319 308 300 288 291 282 262 245 245 244
58 261 252 247 243 201 239 160 171 145 142 122 116 104 96 85 57 59 41 37 26 25 23 14 11 9 359 354 350 339 339 337 328 331 342 332 336 329 319 319 311 303 291 314 335 339 319 289 282
270 262 220 223 214 177 239 186 196 137 155 139 132 123 109 93 83 60 41 36 26 24 19 14 9 7 359 350 344 336 333 327 322 325 325 326 330 326 316 316 308 306 313 306 287 257 282 286 257
254 239 259 151 189 140 227 220 138 164 164 156 148 145 135 101 75 53 36 30 23 20 14 12 7 4 358 348 337 332 329 325 313 322 318 325 330 322 320 311 307 309 314 303 285 287 267 266 265
204 265 207 156 195 218 228 151 153 176 177 171 175 168 152 133 94 53 38 27 18 20 11 7 3 2 353 344 341 333 332 320 322 317 310 318 322 320 316 309 302 308 301 292 287 279 262 259 262
315 203 248 263 154 217 256 259 165 183 184 191 192 177 173 153 85 54 34 28 16 19 9 5 3 359 348 340 337 331 326 322 318 311 312 317 312 311 312 307 303 301 293 286 280 283 281 279 272
301 288 278 282 97 276 255 255 255 177 196 193 198 190 182 166 125 95 54 48 9 24 10 6 360 357 349 348 341 332 327 322 316 313 312 309 314 310 312 306 303 299 293 291 292 285 278 273 264
251 260 258 264 267 280 265 262 256 170 197 205 205 198 189 168 165 111 56 39 23 16 9 1 359 355 352 350 334 333 324 316 310 306 315 320 313 319 313 311 303 298 292 287 284 278 274 268 268
235 254 264 271 288 255 259 260 253 196 187 186 210 213 162 190 169 150 53 37 17 19 7 359 358 352 359 350 336 333 321 316 317 328 317 322 322 317 309 307 304 301 301 292 284 275 270 268 264
255 250 241 265 265 271 83 291 303 175 182 197 193 190 186 169 183 164 341 19 16 15 6 358 359 359 3 354 345 342 326 325 328 317 320 326 320 315 318 314 304 295 289 284 290 293 291 270 266
259 12 253 258 262 276 268 263 252 167 197 185 194 186 179 159 161 172 4 7 28 17 9 6 358 4 5 357 354 344 340 330 328 328 327 319 318 317 314 316 322 315 303 283 277 282 286 290 296
138 197 218 240 253 259 256 246 266 166 192 94 134 172 158 165 168 180 164 342 27 19 8 1 357 3 7 358 356 354 344 338 333 331 328 327 321 322 323 322 317 302 289 283 281 269 268 270 274
198 206 238 219 213 249 144 258 279 33 128 83 138 162 165 165 192 196 200 348 20 6 6 359 359 2 6 358 359 357 352 345 337 335 332 329 328 328 326 326 315 307 299 291 279 271 270 262 253
212 228 237 247 250 275 137 252 228 104 114 122 140 178 165 184 179 205 185 337 23 12 12 0 359 0 3 356 0 3 359 352 342 339 337 332 332 329 330 328 324 323 312 300 288 275 260 257 255
203 224 251 270 271 266 264 270 142 113 131 156 172 185 193 196 193 188 174 146 39 17 20 11 2 5 0 358 3 5 5 358 350 346 344 342 342 343 340 340 341 337 333 325 309 286 265 254 251
229 193 195 223 248 251 260 270 322 160 205 169 221 221 234 207 189 179 168 113 50 31 22 25 10 5 357 4 7 8 7 1 353 354 352 354 352 354 351 358 358 355 354 348 350 340 325 232 246
188 213 233 274 252 272 278 275 107 192 190 298 293 288 225 202 198 178 118 124 55 26 18 26 8 10 6 6 10 11 9 0 359 359 4 0 355 359 7 9 7 10 10 6 8 13 23 40 36
216 216 215 225 250 246 264 271 265 267 212 257 283 303 296 175 177 174 168 132 70 63 35 31 16 16 7 9 10 11 12 10 4 4 9 6 359 3 9 16 17 15 14 21 21 24 27 35 34